Adak, AK

2:43 PM HDT on May 20, 2018 (GMT -0900)
Adak

Weather History for PADK - October, 2013

Change the Weather History Date:

Friday, October 11, 2013

  Actual Average Record
Temperature  
Mean Temperature 44 °F -  
Max Temperature 48 °F 50 °F 85 °F (1972)
Min Temperature 41 °F 38 °F 29 °F (1991)
Degree Days  
Heating Degree Days 20    
Moisture  
Dew Point 37 °F    
Average Humidity 77    
Maximum Humidity 87    
Minimum Humidity 44    
Precipitation  
Precipitation 0.08 in - - ()
Sea Level Pressure  
Sea Level Pressure 29.31 in    
Wind  
Wind Speed 13 mph (West)    
Max Wind Speed 26 mph    
Max Gust Speed 37 mph    
Visibility 9 miles    
Events      
Averages and records for this station are not official NWS values.
T = Trace of Precipitation, MM = Missing Value Source: NWS Daily Summary

Daily Weather History Graph

Daily Weather History Graph

Search for Another Location

Airport or City:

Astronomy

Oct. 11, 2013 Rise Set
Actual Time 9:05 AM HDT 8:00 PM HDT
Civil Twilight 8:31 AM HDT 8:33 PM HDT
Nautical Twilight 7:52 AM HDT 9:12 PM HDT
Astronomical Twilight 7:13 AM HDT 9:51 PM HDT
Moon 4:19 PM HDT (10/11) 12:30 AM HDT (10/11)
Length of Visible Light 12h 02m
Length of Day
10h 55m
Waxing Crescent, 49% of the Moon is Illuminated
Oct 11
Waxing Crescent
Oct 11
First Quarter
Oct 18
Full
Oct 26
Last Quarter
Nov 3
New

Hourly Weather History & Observations

Time (HDT) Temp. Windchill Dew Point Humidity Pressure Visibility Wind Dir Wind Speed Gust Speed Precip Events Conditions
12:16 AM 42.8 °F 36.6 °F 37.4 °F 81% 29.41 in 10.0 mi WSW 11.5 mph - N/A   Mostly Cloudy
12:36 AM 41.0 °F 34.3 °F 35.6 °F 81% 29.39 in 10.0 mi WSW 11.5 mph - N/A   Scattered Clouds
12:56 AM 41.0 °F 33.9 °F 35.6 °F 81% 29.39 in 10.0 mi WSW 12.7 mph - N/A   Scattered Clouds
1:16 AM 42.8 °F 36.6 °F 35.6 °F 76% 29.38 in 10.0 mi West 11.5 mph - N/A   Mostly Cloudy
1:36 AM 42.8 °F 36.6 °F 37.4 °F 81% 29.37 in 10.0 mi West 11.5 mph - N/A   Mostly Cloudy
1:56 AM 42.8 °F 35.8 °F 37.4 °F 81% 29.37 in 10.0 mi West 13.8 mph 18.4 mph N/A   Overcast
2:16 AM 42.8 °F 35.4 °F 37.4 °F 81% 29.36 in 10.0 mi West 15.0 mph - N/A   Overcast
2:36 AM 42.8 °F 34.8 °F 37.4 °F 81% 29.35 in 10.0 mi WSW 17.3 mph 20.7 mph N/A   Overcast
2:56 AM 42.8 °F 35.4 °F 37.4 °F 81% 29.35 in 10.0 mi West 15.0 mph - N/A   Overcast
3:16 AM 42.8 °F 36.6 °F 39.2 °F 87% 29.35 in 10.0 mi WSW 11.5 mph - N/A   Overcast
3:36 AM 42.8 °F 39.3 °F 39.2 °F 87% 29.35 in 10.0 mi WSW 5.8 mph - N/A   Overcast
3:56 AM 42.8 °F - 39.2 °F 87% 29.35 in 10.0 mi Calm Calm - N/A   Overcast
4:16 AM 44.6 °F 43.1 °F 39.2 °F 81% 29.34 in 10.0 mi NNE 3.5 mph - N/A   Overcast
4:36 AM 44.6 °F 39.7 °F 39.2 °F 81% 29.33 in 5.0 mi WSW 9.2 mph - N/A   Mostly Cloudy
4:56 AM 44.6 °F 41.4 °F 39.2 °F 81% 29.32 in 10.0 mi WNW 5.8 mph - N/A   Overcast
5:16 AM 42.8 °F 34.3 °F 37.4 °F 81% 29.32 in 4.0 mi WNW 19.6 mph - 0.03 in   Overcast
5:36 AM 42.8 °F 40.1 °F 37.4 °F 81% 29.31 in 8.0 mi West 4.6 mph - 0.05 in   Overcast
5:56 AM 42.8 °F 38.0 °F 37.4 °F 81% 29.30 in 10.0 mi WSW 8.1 mph - 0.05 in   Overcast
6:16 AM 41.0 °F 38.0 °F 37.4 °F 87% 29.30 in 10.0 mi SW 4.6 mph - N/A   Overcast
6:36 AM 42.8 °F 36.2 °F 39.2 °F 87% 29.29 in 10.0 mi WSW 12.7 mph - N/A   Overcast
6:56 AM 42.8 °F 37.5 °F 39.2 °F 87% 29.29 in 10.0 mi WSW 9.2 mph - N/A   Overcast
7:16 AM 42.8 °F 37.5 °F 39.2 °F 87% 29.29 in 10.0 mi WSW 9.2 mph - N/A   Overcast
7:36 AM 42.8 °F 37.0 °F 39.2 °F 87% 29.29 in 10.0 mi WSW 10.4 mph - N/A   Overcast
7:56 AM 42.8 °F 38.0 °F 39.2 °F 87% 29.29 in 7.0 mi WSW 8.1 mph - N/A   Overcast
8:16 AM 42.8 °F 35.4 °F 37.4 °F 81% 29.29 in 6.0 mi West 15.0 mph - 0.02 in   Overcast
8:36 AM 41.0 °F 37.1 °F 37.4 °F 87% 29.28 in 9.0 mi West 5.8 mph - 0.02 in   Overcast
8:56 AM 41.0 °F 35.2 °F 37.4 °F 87% 29.28 in 10.0 mi West 9.2 mph - 0.02 in   Overcast
9:16 AM 42.8 °F 36.6 °F 37.4 °F 81% 29.27 in 10.0 mi WSW 11.5 mph - N/A   Overcast
9:36 AM 42.8 °F 36.2 °F 37.4 °F 81% 29.27 in 10.0 mi WSW 12.7 mph - N/A   Mostly Cloudy
9:56 AM 42.8 °F 36.6 °F 39.2 °F 87% 29.26 in 10.0 mi WSW 11.5 mph - N/A   Overcast
10:16 AM 42.8 °F 38.0 °F 39.2 °F 87% 29.26 in 10.0 mi West 8.1 mph - N/A   Overcast
10:36 AM 42.8 °F 37.0 °F 39.2 °F 87% 29.26 in 9.0 mi West 10.4 mph - 0.02 in   Overcast
10:56 AM 42.8 °F 36.6 °F 39.2 °F 87% 29.26 in 10.0 mi WSW 11.5 mph - 0.02 in   Overcast
11:16 AM 42.8 °F 39.3 °F 37.4 °F 81% 29.26 in 10.0 mi SW 5.8 mph - N/A   Overcast
11:36 AM 44.6 °F 40.2 °F 39.2 °F 81% 29.26 in 10.0 mi West 8.1 mph - N/A   Overcast
11:56 AM 42.8 °F 37.5 °F 37.4 °F 81% 29.25 in 10.0 mi WNW 9.2 mph - N/A   Overcast
12:16 PM 44.6 °F 38.8 °F 37.4 °F 76% 29.25 in 10.0 mi West 11.5 mph - N/A   Overcast
12:36 PM 44.6 °F 39.7 °F 39.2 °F 81% 29.25 in 10.0 mi West 9.2 mph - N/A   Overcast
12:56 PM 44.6 °F 41.4 °F 37.4 °F 76% 29.25 in 10.0 mi WNW 5.8 mph - N/A   Overcast
1:16 PM 44.6 °F 38.8 °F 37.4 °F 76% 29.25 in 10.0 mi WNW 11.5 mph 16.1 mph N/A   Overcast
1:36 PM 44.6 °F 37.4 °F 37.4 °F 76% 29.25 in 10.0 mi NW 16.1 mph 21.9 mph N/A   Overcast
1:56 PM 44.6 °F 39.2 °F 37.4 °F 76% 29.25 in 10.0 mi WNW 10.4 mph - N/A   Overcast
2:16 PM 46.4 °F 42.9 °F 37.4 °F 71% 29.25 in 10.0 mi WNW 6.9 mph - N/A   Overcast
2:36 PM 46.4 °F 44.3 °F 37.4 °F 71% 29.25 in 10.0 mi NNW 4.6 mph - N/A   Overcast
2:56 PM 46.4 °F 40.1 °F 37.4 °F 71% 29.25 in 10.0 mi NW 15.0 mph 20.7 mph N/A   Overcast
3:16 PM 46.4 °F 39.8 °F 37.4 °F 71% 29.25 in 10.0 mi WNW 16.1 mph 21.9 mph N/A   Mostly Cloudy
3:36 PM 46.4 °F 39.0 °F 35.6 °F 66% 29.25 in 10.0 mi NW 19.6 mph - N/A   Mostly Cloudy
3:56 PM 46.4 °F 38.7 °F 35.6 °F 66% 29.25 in 10.0 mi WNW 20.7 mph 27.6 mph N/A   Overcast
4:16 PM 44.6 °F 37.4 °F 37.4 °F 76% 29.26 in 10.0 mi NW 16.1 mph 21.9 mph N/A   Overcast
4:36 PM 44.6 °F 36.6 °F 35.6 °F 71% 29.27 in 9.0 mi NW 19.6 mph 34.5 mph N/A   Overcast
4:56 PM 44.6 °F 38.8 °F 37.4 °F 76% 29.28 in 7.0 mi WNW 11.5 mph 20.7 mph N/A   Overcast
5:16 PM 44.6 °F 37.4 °F 37.4 °F 76% 29.28 in 10.0 mi West 16.1 mph 19.6 mph N/A   Overcast
5:36 PM 44.6 °F 37.2 °F 37.4 °F 76% 29.28 in 6.0 mi WNW 17.3 mph 26.5 mph N/A   Overcast
5:56 PM 44.6 °F 37.2 °F 37.4 °F 76% 29.29 in 7.0 mi WNW 17.3 mph 26.5 mph N/A   Overcast
6:16 PM 44.6 °F 37.8 °F 37.4 °F 76% 29.30 in 10.0 mi NW 15.0 mph 21.9 mph N/A   Overcast
6:36 PM 44.6 °F 36.6 °F 35.6 °F 71% 29.30 in 10.0 mi NNW 19.6 mph 27.6 mph N/A   Overcast
6:56 PM 41.0 °F 31.4 °F 35.6 °F 81% 29.32 in 4.0 mi NNW 21.9 mph 33.4 mph 0.03 in   Overcast
7:16 PM 42.8 °F 33.5 °F 35.6 °F 76% 29.32 in 5.0 mi NW 23.0 mph 32.2 mph 0.02 in   Overcast
7:36 PM 42.8 °F 34.8 °F 33.8 °F 70% 29.33 in 10.0 mi NW 17.3 mph 29.9 mph 0.02 in   Overcast
7:56 PM 44.6 °F 37.2 °F 33.8 °F 66% 29.34 in 10.0 mi NW 17.3 mph 23.0 mph 0.02 in   Overcast
8:16 PM 44.6 °F 35.7 °F 32.0 °F 61% 29.35 in 10.0 mi NW 24.2 mph 34.5 mph N/A   Overcast
8:36 PM 44.6 °F 36.4 °F 32.0 °F 61% 29.36 in 10.0 mi NW 20.7 mph 33.4 mph N/A   Overcast
8:56 PM 44.6 °F 35.7 °F 30.2 °F 57% 29.36 in 10.0 mi NW 24.2 mph 36.8 mph N/A   Overcast
9:16 PM 44.6 °F 37.2 °F 33.8 °F 66% 29.37 in 9.0 mi NW 17.3 mph 28.8 mph N/A   Overcast
9:36 PM 44.6 °F 37.2 °F 32.0 °F 61% 29.38 in 10.0 mi NW 17.3 mph 36.8 mph N/A   Overcast
9:56 PM 42.8 °F 33.8 °F 33.8 °F 70% 29.39 in 10.0 mi NW 21.9 mph 27.6 mph N/A   Overcast
10:16 PM 44.6 °F 35.3 °F 33.8 °F 66% 29.40 in 10.0 mi WNW 26.5 mph 33.4 mph N/A   Overcast
10:36 PM 44.6 °F 35.3 °F 33.8 °F 66% 29.40 in 10.0 mi NW 26.5 mph 36.8 mph N/A   Overcast
10:56 PM 42.8 °F 33.8 °F 35.6 °F 76% 29.41 in 5.0 mi WNW 21.9 mph 36.8 mph N/A   Overcast
11:16 PM 44.6 °F 36.4 °F 35.6 °F 71% 29.42 in 9.0 mi WNW 20.7 mph 36.8 mph N/A   Overcast
11:36 PM 42.8 °F 35.8 °F 35.6 °F 76% 29.43 in 4.0 mi WNW 13.8 mph 28.8 mph 0.01 in   Overcast
11:56 PM 44.6 °F 36.4 °F 37.4 °F 76% 29.43 in 10.0 mi WNW 20.7 mph 34.5 mph 0.01 in   Overcast